Ellensburg, WA
on Tuesday, February 19, 2013

Tuesday
Previous Day Next Day
Daily Summary
 ActualAverage (KYKM)Record (KYKM)
Temperature
Mean Temperature °F 37°F  
Max Temperature 46°F 48°F 66°F (1991)
Min Temperature 23°F 26°F 7°F (2006)
Degree Days
Heating Degree Days 30 28  
Month to date heating degree days 566  
Since 1 July heating degree days 4284  
Cooling Degree Days 0 0  
Month to date cooling degree days 0  
Year to date cooling degree days 0  
Moisture
Dew Point 22°F   
Average Humidity 64    
Maximum Humidity 81    
Minimum Humidity 37    
Precipitation
Precipitation 0.00 in 0.03 in 0.37 in (1993)
Month to date precipitation 0.54  
Year to date precipitation 1.68  
Snow
Snow 0.00 in 0.00 in 4.40 in (1993)
Month to date snowfall 1.9  
Year to date snowfall 7.2  
Since 1 July snowfall 20.2  
Snow Depth in   
Wind
Wind Speed 3 mph   
Max Wind Speed 8 mph   
Max Gust Speed mph   
Visibility 10 miles   
Events     

Key: T is trace of precipitation, MM is missing value
Source: NWS Daily Summary
Time(PST)TemperatureDew PointHumidity Pressure Visibility Wind DirectionWind SpeedGust SpeedPrecipitationEvents Conditions
12:53 AM 24.1°F 18.0°F 77% 29.78 in 10.0 miles NNE 3.5 mph - N/A   Clear
1:53 AM 26.1°F 19.9°F 78% 29.78 in 10.0 miles Calm Calm - N/A   Clear
2:53 AM 23.0°F 17.1°F 78% 29.77 in 10.0 miles East 3.5 mph - N/A   Mostly Cloudy
3:53 AM 28.0°F 23.0°F 81% 29.77 in 10.0 miles Calm Calm - N/A   Overcast
4:53 AM 30.0°F 24.1°F 79% 29.77 in 10.0 miles Calm Calm - N/A   Overcast
5:53 AM 28.0°F 23.0°F 81% 29.78 in 10.0 miles Calm Calm - N/A   Overcast
6:53 AM 30.0°F 24.1°F 79% 29.78 in 10.0 miles West 4.6 mph - N/A   Overcast
7:53 AM 30.9°F 25.0°F 79% 29.79 in 10.0 miles Calm Calm - N/A   Overcast
10:53 AM 42.1°F 24.1°F 49% 29.79 in 10.0 miles West 6.9 mph - N/A   Clear
11:53 AM 44.1°F 24.1°F 45% 29.79 in 10.0 miles Calm Calm - N/A   Clear
12:53 PM 46.0°F 21.9°F 39% 29.78 in 10.0 miles Variable 3.5 mph - N/A   Clear
1:53 PM 46.9°F 21.9°F 37% 29.78 in 10.0 miles WSW 6.9 mph - N/A   Overcast
2:53 PM 46.9°F 21.9°F 37% 29.79 in 10.0 miles ENE 3.5 mph - N/A   Overcast
4:53 PM 44.1°F 24.1°F 45% 29.80 in 10.0 miles Calm Calm - 0.00 in   Overcast
5:53 PM 39.9°F 25.0°F 55% 29.83 in 10.0 miles ESE 3.5 mph - N/A   Overcast
6:53 PM 37.0°F 25.0°F 62% 29.85 in 10.0 miles NE 4.6 mph - N/A   Scattered Clouds
7:53 PM 35.1°F 24.1°F 64% 29.87 in 10.0 miles North 8.1 mph - N/A   Mostly Cloudy
8:53 PM 30.9°F 21.9°F 69% 29.89 in 10.0 miles NE 3.5 mph - N/A   Clear
9:53 PM 28.9°F 21.0°F 72% 29.91 in 10.0 miles NNW 5.8 mph - N/A   Clear
10:53 PM 30.0°F 21.0°F 69% 29.93 in 10.0 miles NW 3.5 mph - N/A   Clear
11:53 PM 27.0°F 19.9°F 75% 29.94 in 10.0 miles North 3.5 mph - N/A   Clear
Moon Phase
Feb. 19 Feb. 25 Mar. 04 Mar. 11 Mar. 19
Sunrise:06:59 AM (PST) Moon Rise:11:56 AM (PST)2/19
Sunset:05:33 PM (PST) Moon Set:02:47 AM (PST)2/19

Copyright © 2014 The Weather Underground, Inc.